User: anonymous   Login
Location: NJAA Observatory
(40.6819°N, 74.8979°W)
Time: 19:46:15
(UTC-04:00)
Language:

Cosmos 220 Rocket - Orbit

View from above orbital plane
View from above orbital plane
View from above satellite
View from above satellite

Ground track
Ground track

The orbit data is extracted from the following two-line orbital elements,

1 03230U 68040B   15085.12045707  .00002170  00000-0  23289-3 0  9998
2 03230 074.0350 071.3111 0032726 241.0958 118.6939 14.88912876514294
Epoch (UTC): 26 March 2015 02:53:27
Eccentricity: 0.0032726
inclination: 74.0350°
perigee height: 578 km
apogee height: 624 km
right ascension of ascending node: 71.3111°
argument of perigee: 241.0958°
revolutions per day: 14.88912876
mean anomaly at epoch: 118.6939°
orbit number at epoch: 51429

The dashed part of the orbit path shows where the satellite is in the earth's shadow,  

DLR